Location: Unspecified
(47.9110°N, 14.3980°E)
Time: 21:11:18
(UTC+00:00)

Cosmos 1818 - Pass Details

Date: 06 August 2020
Orbit: 776 x 797 km, 65.0° (Epoch: 21 September)

Event Time Altitude Azimuth Distance (km) Brightness Sun altitude
Rises 19:21:10 0° 323° (NW) 3,309 8.5 -8.2°
Reaches altitude 10° 19:23:40 10° 328° (NNW) 2,377 7.3 -8.6°
Maximum altitude 19:29:02 54° 46° (NE) 964 4.0 -9.3°
Enters shadow 19:33:52 13° 122° (ESE) 2,183 5.2 -9.9°
